LQTZ

Tuzla International Airport

Airport
ICAO code
LQTZ
IATA Code
TL
Summary
ICAO Region
EUR
ICAO Territory
Location

Gornje Dubrave, Tuzla

Serving
Tuzla
Elevation
765 ft
Coordinates
44° 27' 45" N , 18° 43' 28" E
KCC
Metar
LQTZ 130030Z 00000KT CAVOK 21/20 Q1010

Tuzla International Airport is an airport near Tuzla, Bosnia and Herzegovina.

Climatology

Temperate oceanic climate (Köppen climate classification Cfb)

Runways

Designator Length Width Surface Rops
9/27 2485 45 ASP No/No

Airport map

Aerial View

SKYbrary Partners:

Safety knowledge contributed by: